Atlanta, GA

1:14 PM EDT on August 31, 2016 (GMT -0400)
Fulton County-Brown

Weather History for KFTY - February, 2013

Change the Weather History Date:

Wednesday, February 20, 2013

  Actual Average Record
Temperature  
Mean Temperature 40 °F 47 °F  
Max Temperature 50 °F 58 °F 77 °F (2014)
Min Temperature 30 °F 36 °F 15 °F (2015)
Degree Days  
Heating Degree Days 25 18  
Month to date heating degree days 391  
Since 1 July heating degree days 2207  
Moisture  
Dew Point 13 °F    
Average Humidity 34    
Maximum Humidity 61    
Minimum Humidity 16    
Precipitation  
Precipitation 0.00 in 0.19 in 1.77 in (1971)
Month to date precipitation 3.36  
Year to date precipitation 7.63  
Sea Level Pressure  
Sea Level Pressure 30.17 in    
Wind  
Wind Speed 7 mph (NW)    
Max Wind Speed 14 mph    
Max Gust Speed 23 mph    
Visibility 10 miles    
Events Rain    
T = Trace of Precipitation, MM = Missing Value Source: NWS Daily Summary

Daily Weather History Graph

Daily Weather History Graph

Search for Another Location

Airport or City:

Trip Planner

Search our weather history database for the weather conditions in past years. The results will help you decide how hot, cold, wet, or windy it might be!

Date:

Astronomy

Feb. 20, 2013 Rise Set
Actual Time 7:16 AM EST 6:27 PM EST
Civil Twilight 6:51 AM EST 6:52 PM EST
Nautical Twilight 6:22 AM EST 7:21 PM EST
Astronomical Twilight 5:53 AM EST 7:50 PM EST
Moon 1:56 PM EST (2/20) 3:28 AM EST (2/20)
Length of Visible Light 12h 00m
Length of Day
11h 10m
Waxing Gibbous, 76% of the Moon is Illuminated
Feb 20
Waxing Gibbous
Feb 25
Full
Mar 4
Last Quarter
Mar 11
New
Mar 19
First Quarter

Hourly Weather History & Observations

Time (EST) Temp. Windchill Dew Point Humidity Pressure Visibility Wind Dir Wind Speed Gust Speed Precip Events Conditions
12:53 AM 39.0 °F 34.8 °F 18.0 °F 43% 30.18 in 10.0 mi WNW 5.8 mph - N/A   Clear
1:53 AM 37.9 °F 32.7 °F 18.0 °F 45% 30.17 in 10.0 mi NW 6.9 mph - N/A   Clear
2:53 AM 37.0 °F 31.6 °F 17.1 °F 44% 30.18 in 10.0 mi NW 6.9 mph - N/A   Clear
3:53 AM 35.1 °F 30.1 °F 17.1 °F 48% 30.16 in 10.0 mi Variable 5.8 mph - N/A   Clear
4:53 AM 34.0 °F - 17.1 °F 50% 30.15 in 10.0 mi Calm Calm - N/A   Clear
5:53 AM 34.0 °F - 17.1 °F 50% 30.16 in 10.0 mi Calm Calm - N/A   Clear
6:53 AM 30.9 °F 27.5 °F 19.0 °F 61% 30.18 in 10.0 mi WSW 3.5 mph - N/A   Clear
7:53 AM 33.1 °F 30.0 °F 18.0 °F 54% 30.21 in 10.0 mi WSW 3.5 mph - N/A   Clear
8:53 AM 37.0 °F 31.6 °F 18.0 °F 46% 30.22 in 10.0 mi NW 6.9 mph - N/A   Clear
9:53 AM 41.0 °F 34.3 °F 14.0 °F 33% 30.22 in 10.0 mi North 11.5 mph 17.3 mph N/A   Clear
10:53 AM 44.1 °F 37.7 °F 12.0 °F 27% 30.19 in 10.0 mi NNW 12.7 mph 18.4 mph N/A   Clear
11:53 AM 46.9 °F - 10.0 °F 22% 30.20 in 10.0 mi WNW 13.8 mph - N/A   Clear
12:53 PM 48.9 °F - 7.0 °F 18% 30.18 in 10.0 mi NNW 10.4 mph 17.3 mph N/A   Clear
1:53 PM 48.2 °F - 3.2 °F 16% 30.14 in 10.0 mi NNW 12.7 mph 23.0 mph N/A   Clear
2:53 PM 50.0 °F - 8.1 °F 18% 30.15 in 10.0 mi WNW 11.5 mph - N/A   Clear
3:53 PM 48.2 °F - 5.0 °F 17% 30.17 in 10.0 mi NNW 9.2 mph - N/A   Overcast
4:53 PM 48.0 °F - 12.0 °F 24% 30.19 in 10.0 mi NW 8.1 mph - N/A   Overcast
5:53 PM 46.0 °F 42.5 °F 10.9 °F 24% 30.17 in 10.0 mi NNW 6.9 mph - 0.00 in Rain Light Rain
6:53 PM 44.1 °F 41.5 °F 9.0 °F 24% 30.12 in 10.0 mi North 4.6 mph - 0.00 in   Clear
7:53 PM 42.8 °F 40.1 °F 10.4 °F 27% 30.12 in 10.0 mi NW 4.6 mph - N/A   Partly Cloudy
8:53 PM 42.1 °F 40.2 °F 12.9 °F 31% 30.15 in 10.0 mi WNW 3.5 mph - N/A   Clear
9:53 PM 41.0 °F 36.4 °F 12.9 °F 32% 30.16 in 10.0 mi WNW 6.9 mph - N/A   Clear
10:53 PM 39.2 °F 33.0 °F 12.2 °F 33% 30.15 in 10.0 mi NW 9.2 mph - N/A   Partly Cloudy
11:53 PM 39.9 °F 36.7 °F 14.0 °F 35% 30.15 in 10.0 mi NW 4.6 mph - N/A   Overcast